Regional Weather Roundup
Issued by NWS

Home | Current Version | Previous Version | Text Only | Print | Product List | Glossary Off
Versions: 1 2 3 4 5 6 7 8 9 10 11 12 13 14 15 16 17 18 19 20 21 22 23 24 25 26 27 28 29 30 31 32 33 34 35 36 37 38 39 40 41 42 43 44 45 46 47 48 49 50

000
ASUS43 KBIS 170702
RWRND

NORTH DAKOTA REGIONAL WEATHER ROUNDUP
NATIONAL WEATHER SERVICE BISMARCK ND
200 AM CDT TUE OCT 17 2017

NOTE: "FAIR" INDICATES FEW OR NO CLOUDS BELOW 12,000 FEET WITH NO
SIGNIFICANT WEATHER AND/OR OBSTRUCTIONS TO VISIBILITY.


NDZ001>003-009>011-017-170800-
NORTHWEST NORTH DAKOTA

CITY           SKY/WX    TMP DP  RH WIND       PRES   REMARKS
WILLISTON      CLEAR     38  32  79 SW3       29.90S
MINOT          CLEAR     47  34  60 SW12      29.88S
MINOT AFB      CLEAR     42  31  66 SW12      29.86S
$$

NDZ018>021-031>035-040>046-170800-
SOUTHWEST NORTH DAKOTA

CITY           SKY/WX    TMP DP  RH WIND       PRES   REMARKS
BISMARCK       CLOUDY    35  30  82 CALM      29.98S
DICKINSON      CLEAR     42  30  62 S9        29.96F
GARRISON         N/A     41  38  89 S3        29.92F
HETTINGER ARPT CLOUDY    31  24  75 CALM      30.03F
$$

NDZ004>008-012>016-024-026-027-054-170800-
NORTHEAST NORTH DAKOTA

CITY           SKY/WX    TMP DP  RH WIND       PRES   REMARKS
GRAND FORKS    CLOUDY    39  33  79 SW6       29.90R
GRND FRKS AFB  CLOUDY    39  33  80 W6        29.90R
DEVILS LAKE    PTCLDY    38  35  89 SE3       29.92R
$$

NDZ022-023-025-028>030-036>039-047>053-170800-
SOUTHEAST NORTH DAKOTA

CITY           SKY/WX    TMP DP  RH WIND       PRES   REMARKS
FARGO          CLOUDY    42  36  79 SW6       29.93R
JAMESTOWN      CLOUDY    42  33  70 W5        29.94R
$$




USA.gov is the U.S. government's official web portal to all federal, state and local government web resources and services.